DW0000 Weather Reports


Display with metric or nautical units.
time (UTC)temp
F
wind
direction
speed
MPH
gust
MPH
rain 1hr
in
rain 24hr
in
rain mn
in
humidity
%
barometer
mb
20260505102008 57 88 5.0 5.0 0.00 0.00 0.00 93 1030.0
20260505101006 57 92 5.0 6.0 0.00 0.00 0.00 94 1029.9
20260505100507 57 86 4.0 6.0 0.00 0.00 0.00 94 1029.9
20260505100007 57 81 5.0 6.0 0.00 0.00 0.00 94 1029.9
20260505095506 57 79 5.0 6.0 0.00 0.00 0.00 93 1030.0
20260505094008 57 85 4.0 5.0 0.00 0.00 0.00 93 1029.9
20260505092507 57 90 3.0 5.0 0.00 0.00 0.00 93 1029.8
20260505091506 58 95 3.0 5.0 0.00 0.00 0.00 93 1029.8
20260505091006 58 83 5.0 6.0 0.00 0.00 0.00 93 1030.0
20260505090006 58 78 5.0 6.0 0.00 0.00 0.00 93 1029.7
20260505085006 58 81 5.0 6.0 0.00 0.00 0.00 93 1029.9
20260505084006 58 83 5.0 5.0 0.00 0.00 0.00 93 1029.7
20260505083006 58 84 5.0 5.0 0.00 0.00 0.00 92 1029.5
20260505082007 58 79 3.0 6.0 0.00 0.00 0.00 92 1029.8
20260505081506 58 81 5.0 6.0 0.00 0.00 0.00 92 1029.6
20260505081007 58 78 4.0 5.0 0.00 0.00 0.00 91 1029.7
20260505080006 58 84 2.0 5.0 0.00 0.00 0.00 90 1029.8
20260505075506 58 83 2.0 5.0 0.00 0.00 0.00 89 1029.8
20260505075008 58 85 2.0 3.0 0.00 0.00 0.00 89 1029.7
20260505074006 59 80 3.0 5.0 0.00 0.00 0.00 88 1029.7
20260505073007 59 83 4.0 8.0 0.00 0.00 0.00 88 1029.7
20260505072506 60 87 5.0 7.0 0.00 0.00 0.00 87 1029.6
20260505071507 60 75 4.0 7.0 0.00 0.00 0.00 86 1029.6
20260505070506 60 80 5.0 9.0 0.00 0.00 0.00 86 1029.4
20260505070007 60 82 5.0 9.0 0.00 0.00 0.00 86 1029.5
20260505065006 61 83 5.0 8.0 0.00 0.00 0.00 86 1029.4
20260505063506 61 76 5.0 6.0 0.00 0.00 0.00 84 1029.4
20260505063006 62 69 3.0 6.0 0.00 0.00 0.00 84 1029.6
20260505062505 62 81 4.0 6.0 0.00 0.00 0.00 85 1029.5
20260505062007 62 76 5.0 9.0 0.00 0.00 0.00 85 1029.4
20260505061006 62 52 2.0 5.0 0.00 0.00 0.00 84 1029.5
20260505060507 62 36 2.0 7.0 0.00 0.00 0.00 83 1029.5
20260505060005 62 29 3.0 7.0 0.00 0.00 0.00 83 1029.5
20260505055507 62 11 2.0 3.0 0.00 0.00 0.00 83 1029.4
20260505053505 62 49 3.0 6.0 0.00 0.00 0.00 82 1029.3
20260505053008 62 36 2.0 5.0 0.00 0.00 0.00 81 1029.3
20260505052006 62 50 3.0 6.0 0.00 0.00 0.00 81 1029.3
20260505051506 63 27 3.0 7.0 0.00 0.00 0.00 81 1029.4
20260505041005 64 79 4.0 7.0 0.00 0.00 0.00 79 1029.7
20260505040005 65 63 4.0 10.0 0.00 0.00 0.00 78 1029.6
20260505035506 65 52 3.0 6.0 0.00 0.00 0.00 79 1029.5
20260505035006 65 74 4.0 8.0 0.00 0.00 0.00 78 1029.6
20260505034006 65 60 3.0 7.0 0.00 0.00 0.00 79 1029.5
20260505033505 65 45 3.0 7.0 0.00 0.00 0.00 78 1029.6
20260505033007 65 63 4.0 8.0 0.00 0.00 0.00 78 1029.6
20260505032505 65 71 4.0 10.0 0.00 0.00 0.00 78 1029.6
20260505032005 65 60 5.0 8.0 0.00 0.00 0.00 77 1029.5
20260505025507 67 37 5.0 8.0 0.00 0.00 0.00 74 1029.5
20260505025005 67 49 5.0 9.0 0.00 0.00 0.00 74 1029.5
20260505024007 67 81 6.0 12.0 0.00 0.00 0.00 73 1029.5
20260505023005 67 88 1.0 8.0 0.00 0.00 0.00 74 1029.5
20260505022506 67 94 4.0 9.0 0.00 0.00 0.00 74 1029.6
20260505021506 67 51 6.0 12.0 0.00 0.00 0.00 72 1029.5
20260505015505 68 47 6.0 9.0 0.00 0.00 0.00 72 1029.5
20260505015006 68 69 6.0 10.0 0.00 0.00 0.00 71 1029.5
20260505014506 69 87 4.0 12.0 0.00 0.00 0.00 72 1029.5
20260505014005 69 36 7.0 13.0 0.00 0.00 0.00 70 1029.6
20260505013506 69 61 6.0 12.0 0.00 0.00 0.00 70 1029.8
20260505005507 68 31 3.0 9.0 0.00 0.00 0.00 73 1030.1
20260505005005 68 83 6.0 12.0 0.00 0.00 0.00 72 1030.2
20260505004007 67 50 5.0 12.0 0.00 0.00 0.00 74 1030.5
20260505003505 67 77 5.0 9.0 0.00 0.00 0.00 75 1030.5
20260505003005 66 48 4.0 8.0 0.00 0.00 0.00 76 1030.6
20260505002007 66 73 5.0 10.0 0.00 0.00 0.00 74 1030.8
20260505001005 66 98 5.0 12.0 0.00 0.00 0.00 75 1030.8
20260505000505 66 85 5.0 10.0 0.00 0.00 0.00 74 1030.9
20260504235505 66 77 6.0 8.0 0.00 0.00 0.00 76 1030.9
20260504233506 65 56 4.0 10.0 0.00 0.00 0.00 75 1031.2
20260504230505 64 80 6.0 12.0 0.00 0.00 0.00 76 1031.6
20260504225505 63 35 5.0 10.0 0.00 0.00 0.00 79 1031.7
20260504225005 62 63 6.0 13.0 0.00 0.00 0.00 81 1031.7
20260504223505 61 88 6.0 8.0 0.00 0.00 0.00 83 1031.8
20260504223006 60 94 6.0 10.0 0.00 0.00 0.00 85 1031.7
20260504222505 59 86 6.0 9.0 0.00 0.00 0.00 85 1031.8
20260504221505 58 74 5.0 12.0 0.00 0.00 0.00 83 1031.9
20260504221007 58 60 7.0 10.0 0.00 0.00 0.00 83 1031.8
20260504220006 58 38 5.0 7.0 0.00 0.00 0.00 83 1032.0
20260504215505 58 24 5.0 8.0 0.00 0.00 0.00 83 1031.8
20260504214004 58 37 5.0 8.0 0.00 0.00 0.00 82 1031.6
20260504213505 58 64 3.0 6.0 0.00 0.00 0.00 83 1031.7
20260504213004 57 96 3.0 5.0 0.00 0.00 0.00 85 1031.7
20260504212005 56 65 2.0 6.0 0.00 0.00 0.00 86 1031.9
20260504210005 55 71 4.0 7.0 0.00 0.00 0.00 87 1031.8
20260504205505 55 74 3.0 6.0 0.00 0.00 0.00 87 1031.8
20260504204505 55 78 3.0 6.0 0.00 0.00 0.00 88 1031.7
20260504203505 54 104 2.0 6.0 0.00 0.00 0.00 88 1031.7
20260504203005 54 98 3.0 7.0 0.00 0.00 0.00 89 1031.6
20260504202506 54 89 3.0 6.0 0.00 0.00 0.00 89 1031.6
20260504202005 54 99 3.0 5.0 0.00 0.00 0.00 89 1031.7
20260504201505 53 92 3.0 6.0 0.00 0.00 0.00 89 1031.7
20260504201006 53 86 4.0 6.0 0.00 0.00 0.00 89 1031.7
20260504200505 53 87 3.0 5.0 0.00 0.00 0.00 89 1031.7
20260504200005 53 80 2.0 3.0 0.00 0.00 0.00 89 1031.7
20260504195505 53 102 1.0 2.0 0.00 0.00 0.00 89 1031.7
20260504194005 53 78 2.0 5.0 0.00 0.00 0.00 89 1031.6
20260504193504 52 73 3.0 5.0 0.00 0.00 0.00 89 1031.8
20260504193007 52 58 3.0 6.0 0.00 0.00 0.00 89 1031.7
20260504192506 52 77 3.0 5.0 0.00 0.00 0.00 89 1031.7
20260504192005 52 74 2.0 5.0 0.00 0.00 0.00 89 1031.7
20260504191504 52 61 2.0 3.0 0.00 0.00 0.00 89 1031.6
20260504191004 52 46 1.0 3.0 0.00 0.00 0.00 89 1031.7
20260504184506 52 66 2.0 5.0 0.00 0.00 0.00 89 1031.5
20260504184005 52 67 3.0 5.0 0.00 0.00 0.00 89 1031.5
20260504180006 52 84 4.0 7.0 0.00 0.00 0.00 89 1031.6
20260504174506 52 88 3.0 7.0 0.00 0.00 0.00 89 1031.5
20260504173505 52 72 2.0 3.0 0.00 0.00 0.00 89 1031.7
20260504173006 52 89 3.0 5.0 0.00 0.00 0.00 88 1031.6
20260504172005 52 6 1.0 2.0 0.00 0.00 0.00 88 1031.5
20260504171004 52 40 1.0 3.0 0.00 0.00 0.00 89 1031.5
20260504151006 53 84 2.0 3.0 0.00 0.00 0.00 85 1031.9
20260504141006 54 185 1.0 2.0 0.00 0.00 0.00 81 1032.4
20260504130506 54 58 2.0 3.0 0.00 0.00 0.00 80 1032.8